Weather History for KPOF - November, 2010

Change the Weather History Date:

Sunday, November 7, 2010

  Actual Average Record
Temperature  
Mean Temperature 46 °F -  
Max Temperature 64 °F 57 °F 82 °F (1934)
Min Temperature 27 °F 36 °F 17 °F (1959)
Degree Days  
Heating Degree Days 20    
Moisture  
Dew Point 26 °F    
Average Humidity 53    
Maximum Humidity 85    
Minimum Humidity 21    
Precipitation  
Precipitation 0.00 in - - ()
Sea Level Pressure  
Sea Level Pressure 30.35 in    
Wind  
Wind Speed 3 mph (SSW)    
Max Wind Speed 14 mph    
Max Gust Speed 21 mph    
Visibility 9 miles    
Events      
Averages and records for this station are not official NWS values.
T = Trace of Precipitation, MM = Missing Value Source: NWS Daily Summary

Daily Weather History Graph

Daily Weather History Graph

Search for Another Location

Airport or City:

Trip Planner

Search our weather history database for the weather conditions in past years. The results will help you decide how hot, cold, wet, or windy it might be!

Date:

Astronomy

Nov. 07, 2010 Rise Set
Actual Time 6:31 AM CST 4:58 PM CST
Civil Twilight 6:03 AM CST 5:25 PM CST
Nautical Twilight 5:33 AM CST 5:56 PM CST
Astronomical Twilight 5:02 AM CST 6:26 PM CST
Moon 8:12 AM CST (11/7) 6:01 PM CST (11/7)
Length of Visible Light 11h 21m
Length of Day
10h 27m
Waxing Crescent, 3% of the Moon is Illuminated
Nov 7
Waxing Crescent
Nov 13
First Quarter
Nov 21
Full
Nov 28
Last Quarter
Dec 5
New

Hourly Weather History & Observations

Time (CST) Temp. Windchill Dew Point Humidity Pressure Visibility Wind Dir Wind Speed Gust Speed Precip Events Conditions
12:53 AM 33.1 °F - 26.1 °F 75% 30.43 in 10.0 mi Calm Calm - N/A   Clear
1:53 AM 30.0 °F - 25.0 °F 82% 30.43 in 10.0 mi Calm Calm - N/A   Clear
1:53 AM 30.0 °F - 25.0 °F 82% 30.43 in 10.0 mi Calm Calm - N/A   Clear
2:53 AM 28.9 °F - 24.1 °F 82% 30.43 in 10.0 mi Calm Calm - N/A   Clear
3:53 AM 28.0 °F - 24.1 °F 85% 30.43 in 10.0 mi Calm Calm - N/A   Clear
4:53 AM 28.0 °F - 24.1 °F 85% 30.44 in 10.0 mi Calm Calm - N/A   Clear
5:53 AM 28.9 °F - 24.1 °F 82% 30.43 in 10.0 mi Calm Calm - N/A   Clear
6:53 AM 27.0 °F - 23.0 °F 85% 30.44 in 9.0 mi Calm Calm - N/A   Clear
7:53 AM 36.0 °F - 30.0 °F 79% 30.46 in 10.0 mi Calm Calm - N/A   Clear
8:53 AM 45.0 °F 42.6 °F 28.0 °F 52% 30.45 in 10.0 mi South 4.6 mph - N/A   Clear
9:53 AM 51.1 °F - 26.1 °F 38% 30.43 in 10.0 mi SW 11.5 mph - N/A   Clear
10:53 AM 55.9 °F - 26.1 °F 32% 30.41 in 4.0 mi SW 12.7 mph 20.7 mph N/A   Haze
11:53 AM 59.0 °F - 26.1 °F 28% 30.37 in 4.0 mi SSW 11.5 mph - N/A   Haze
12:53 PM 63.0 °F - 24.1 °F 23% 30.32 in 6.0 mi SSW 12.7 mph - N/A   Haze
1:53 PM 64.0 °F - 25.0 °F 23% 30.30 in 10.0 mi SSW 13.8 mph - N/A   Clear
2:53 PM 64.0 °F - 23.0 °F 21% 30.28 in 10.0 mi SSW 10.4 mph - N/A   Clear
3:53 PM 63.0 °F - 24.1 °F 23% 30.27 in 10.0 mi SSW 12.7 mph - N/A   Clear
4:53 PM 59.0 °F - 26.1 °F 28% 30.26 in 10.0 mi SSW 8.1 mph - N/A   Clear
5:53 PM 53.1 °F - 27.0 °F 37% 30.26 in 10.0 mi SSW 6.9 mph - N/A   Clear
6:53 PM 52.0 °F - 27.0 °F 38% 30.25 in 10.0 mi South 4.6 mph - N/A   Clear
7:53 PM 48.9 °F - 28.0 °F 44% 30.23 in 10.0 mi SSW 6.9 mph - N/A   Clear
8:53 PM 48.0 °F - 27.0 °F 44% 30.22 in 10.0 mi SSW 5.8 mph - N/A   Clear
9:53 PM 46.9 °F - 28.0 °F 48% 30.20 in 10.0 mi Calm Calm - N/A   Clear
10:53 PM 41.0 °F - 28.0 °F 60% 30.19 in 10.0 mi Calm Calm - N/A   Clear